Location: B?lite?ti
(46.2833°N, 22.7333°E)
Time: 04:27:13
(UTC+00:00)

Cosmos 2279 Rocket - Pass Details

Date: 24 January 2021
Orbit: 964 x 979 km, 82.9° (Epoch: 26 February)

Event Time Altitude Azimuth Distance (km) Brightness Sun altitude
Rises 16:01:38 0° 350° (N) 3,693 6.9 -7.1°
Reaches altitude 10° 16:04:09 10° 349° (N) 2,740 6.3 -7.5°
Maximum altitude 16:10:26 77° 265° (W) 1,005 4.3 -8.5°
Drops below altitude 10° 16:16:38 10° 180° (S) 2,713 6.6 -9.5°
Sets 16:19:08 0° 179° (S) 3,654 7.2 -9.9°
